SERVIS 2 DEB, 43393

Orbit data source: Space-Track

SERVIS 2 DEB, 43393 is space debris in SSO originally from a launch on Wed, 02 Jun 2010 UTC launched from the Plesetsk Missile And Space Complex (PKMTR). Debris objects in space refer to the collection of defunct objects orbiting the Earth. Examples of debris include non-operational satellites, rocket bodies, and fragments generated from explosions, collisions, or faulty payload assembly.

Loading next visibility...
Identifier
43393, 2010-023C
Orbit
SSO
Country
Flag of CISCIS
Related business
Manufacturer
MELCO
Mission
Spacecraft
Bus & Motor
Unknown
Mass
Unknown
Launch date (UTC)
2010-06-02 (15 years ago)
Launch vehicle
Unknown
Launch site
Plesetsk Missile And Space Complex (PKMTR)
Object type
Payload
Rocket body
Debris
Shape & HBR
Unknown
Radar Cross Section
Small (<0.1 m²)

Expand to show TLE details & history
Last TLE update: 11 hours ago

TLE from 11 hours ago
0 SERVIS 2 DEB
1 43393U 10023C   25260.87177479  .00004580  00000-0  78702-2 0  9996
2 43393 100.5838 230.4341 0015475 336.1758  23.8653 13.44926753573849
Epoch: 2025-09-17T20:55Z
TLE epoch observation values (Epoch: 2025-09-17T20:55:21.341Z)
Latitude
Longitude
-80.44632°
Altitude
1,083.16 km
Speed
7.316 km/s
True Right ascension
15h 21m 44s
True Declination
0° 00' 00"
Sunlit
Object was in daylight at epoch
Visualization orbit readout
Latitude
Unknown
Longitude
Unknown
Altitude
Unknown
Speed
Unknown
Apparent Right ascension
Unknown
Apparent Declination
Unknown
Sunlit
N/A
Visualization observer readout
Local Sidereal Time
00:21:22
Azimuth
Unknown
Elevation
Unknown
Doppler factor
Unknown
Orbital elements
Apogee altitude
1,099.892 km
Perigee altitude
1,076.784 km
Semi-major axis
7,466.475 km
Eccentricity
0.00155
Inclination
100.5838°
RAAN
230.4341°
Arg. of periapsis
336.1758°
True anomaly
23.93717°
Mean anomaly
23.8653°
Eccentric anomaly
23.90122°
Mean motion
3.36411 °/min
Orbital period
107.01 mins
BSTAR
0.0078702
Loading maneuver chart data...
Computing Atmospheric mass density...
Loading historical data...
Loading historical data...
Loading historical data...
Loading historical data...
Loading historical data...
Loading historical data...
Loading historical data...
Other satellites on launch #23 in the year 2010 (2010-06-02 UTC)

Documentation

Showing up to 5 results
|